Fort Campbell, TN

9:03 AM CDT on August 27, 2016 (GMT -0500)
Outlaw

Weather History for KCKV - November, 2012

Change the Weather History Date:

Thursday, November 15, 2012

  Actual Average Record
Temperature  
Mean Temperature 41 °F -  
Max Temperature 55 °F - 82 °F (1955)
Min Temperature 26 °F - 16 °F (1982)
Degree Days  
Heating Degree Days 24    
Month to date heating degree days 258  
Since 1 July heating degree days 556  
Cooling Degree Days 0    
Month to date cooling degree days 0  
Moisture  
Dew Point 29 °F    
Average Humidity 67    
Maximum Humidity 92    
Minimum Humidity 41    
Precipitation  
Precipitation 0.00 in - 2.06 in (2011)
Month to date precipitation 1.25  
Sea Level Pressure  
Sea Level Pressure 30.34 in    
Wind  
Wind Speed 4 mph (North)    
Max Wind Speed 9 mph    
Max Gust Speed 13 mph    
Visibility 10 miles    
Events      
T = Trace of Precipitation, MM = Missing Value Source: NWS Daily Summary

Daily Weather History Graph

Daily Weather History Graph

Search for Another Location

Airport or City:

Trip Planner

Search our weather history database for the weather conditions in past years. The results will help you decide how hot, cold, wet, or windy it might be!

Date:

Astronomy

Nov. 15, 2012 Rise Set
Actual Time 6:27 AM CST 4:40 PM CST
Civil Twilight 6:00 AM CST 5:07 PM CST
Nautical Twilight 5:29 AM CST 5:39 PM CST
Astronomical Twilight 4:58 AM CST 6:09 PM CST
Moon 8:21 AM CST (11/15) 6:33 PM CST (11/15)
Length of Visible Light 11h 07m
Length of Day
10h 12m
Waxing Crescent, 5% of the Moon is Illuminated
Nov 15
Waxing Crescent
Nov 20
First Quarter
Nov 28
Full
Dec 6
Last Quarter
Dec 13
New

Hourly Weather History & Observations

Time (CST) Temp. Windchill Dew Point Humidity Pressure Visibility Wind Dir Wind Speed Gust Speed Precip Events Conditions
12:52 AM 30.0 °F - 27.0 °F 88% 30.31 in 9.0 mi Calm Calm - N/A   Clear
1:52 AM 30.0 °F 26.5 °F 26.1 °F 85% 30.32 in 10.0 mi NNW 3.5 mph - N/A   Clear
2:52 AM 28.0 °F 21.7 °F 26.1 °F 92% 30.32 in 10.0 mi WNW 5.8 mph - N/A   Clear
3:52 AM 28.0 °F 24.2 °F 26.1 °F 92% 30.33 in 9.0 mi West 3.5 mph - N/A   Clear
4:52 AM 27.0 °F - 24.1 °F 89% 30.34 in 10.0 mi Calm Calm - N/A   Clear
5:52 AM 26.1 °F - 24.1 °F 92% 30.35 in 8.0 mi Calm Calm - N/A   Clear
6:52 AM 27.0 °F - 25.0 °F 92% 30.37 in 7.0 mi Calm Calm - N/A   Clear
7:52 AM 30.9 °F - 28.0 °F 89% 30.38 in 7.0 mi Calm Calm - N/A   Clear
8:52 AM 39.0 °F - 30.9 °F 73% 30.38 in 10.0 mi Calm Calm - N/A   Clear
9:52 AM 45.0 °F 43.5 °F 32.0 °F 60% 30.38 in 10.0 mi Variable 3.5 mph - N/A   Clear
10:52 AM 48.0 °F - 32.0 °F 54% 30.37 in 10.0 mi NE 4.6 mph - N/A   Clear
11:52 AM 50.0 °F - 33.1 °F 52% 30.35 in 10.0 mi North 4.6 mph - N/A   Clear
12:52 PM 52.0 °F - 30.9 °F 45% 30.32 in 10.0 mi NNE 6.9 mph - N/A   Clear
1:52 PM 54.0 °F - 30.9 °F 41% 30.31 in 10.0 mi NNE 5.8 mph - N/A   Clear
2:52 PM 54.0 °F - 30.0 °F 40% 30.30 in 10.0 mi North 4.6 mph - N/A   Clear
3:52 PM 51.1 °F - 28.9 °F 43% 30.30 in 10.0 mi North 6.9 mph - N/A   Clear
4:52 PM 45.0 °F 42.6 °F 30.0 °F 56% 30.31 in 10.0 mi NNW 4.6 mph - N/A   Clear
5:52 PM 41.0 °F 37.1 °F 30.0 °F 65% 30.32 in 10.0 mi North 5.8 mph - N/A   Clear
6:52 PM 41.0 °F 36.4 °F 30.9 °F 67% 30.34 in 10.0 mi North 6.9 mph - N/A   Clear
7:52 PM 37.0 °F 32.4 °F 30.0 °F 76% 30.35 in 10.0 mi North 5.8 mph - N/A   Clear
8:52 PM 37.0 °F 32.4 °F 30.0 °F 76% 30.35 in 10.0 mi NNW 5.8 mph - N/A   Clear
9:52 PM 37.9 °F 35.5 °F 30.9 °F 76% 30.36 in 10.0 mi NNW 3.5 mph - N/A   Clear
10:52 PM 37.0 °F - 30.9 °F 79% 30.36 in 10.0 mi Calm Calm - N/A   Clear
11:52 PM 36.0 °F 33.3 °F 30.9 °F 82% 30.36 in 10.0 mi North 3.5 mph - N/A   Clear